User: anonymous   Login
Location: Unspecified
(0.0000°N, 0.0000°E)
Time: 04:38:25
(UTC+00:00)
Language:

Falcon 9 debris - Orbit

View from above orbital plane
View from above orbital plane
View from above satellite
View from above satellite

Ground track
Ground track

The orbit data is extracted from the following two-line orbital elements,

1 44298U 19029BR  19176.21688795  .00001050  00000-0  32281-4 0  9994
2 44298  53.0042  22.5601 0005525  36.7249 323.4133 15.43535453  6190
Epoch (UTC): 25 June 2019 05:12:19
Eccentricity: 0.0005525
inclination: 53.0042°
perigee height: 432 km
apogee height: 439 km
right ascension of ascending node: 22.5601°
argument of perigee: 36.7249°
revolutions per day: 15.43535453
mean anomaly at epoch: 323.4133°
orbit number at epoch: 619

The dashed part of the orbit path shows where the satellite is in the earth's shadow,  

DLR